TimeMST,TemperatureF,Dew PointF,Humidity,Sea Level PressureIn,VisibilityMPH,Wind Direction,Wind SpeedMPH,Gust SpeedMPH,PrecipitationIn,Events,Conditions,WindDirDegrees,DateUTC
12:15 AM,36.7,32.0,83,30.05,10.0,SW,3.5,-,N/A,,Mostly Cloudy,230,2013-11-09 07:15:00
12:35 AM,37.0,32.0,82,30.05,10.0,West,4.6,-,N/A,,Overcast,270,2013-11-09 07:35:00
12:55 AM,37.4,32.7,83,30.06,10.0,WSW,3.5,-,N/A,,Overcast,240,2013-11-09 07:55:00
1:15 AM,37.4,33.1,84,30.05,10.0,Calm,Calm,-,N/A,,Overcast,0,2013-11-09 08:15:00
1:35 AM,37.8,33.1,83,30.06,10.0,Calm,Calm,-,N/A,,Overcast,0,2013-11-09 08:35:00
1:55 AM,37.9,33.4,84,30.06,10.0,Calm,Calm,-,N/A,,Overcast,0,2013-11-09 08:55:00
2:15 AM,37.9,34.0,86,30.07,10.0,Calm,Calm,-,N/A,,Overcast,0,2013-11-09 09:15:00
2:35 AM,37.9,33.8,85,30.07,10.0,Calm,Calm,-,N/A,,Overcast,0,2013-11-09 09:35:00
2:55 AM,38.1,34.2,86,30.07,10.0,Calm,Calm,-,N/A,,Overcast,0,2013-11-09 09:55:00
3:15 AM,38.3,33.8,84,30.07,10.0,Calm,Calm,-,N/A,,Overcast,0,2013-11-09 10:15:00
3:35 AM,38.3,34.3,86,30.07,10.0,Calm,Calm,-,N/A,,Overcast,0,2013-11-09 10:35:00
3:55 AM,37.9,33.6,84,30.08,10.0,Calm,Calm,-,N/A,,Overcast,0,2013-11-09 10:55:00
4:15 AM,37.6,33.8,86,30.08,10.0,Calm,Calm,-,N/A,,Scattered Clouds,0,2013-11-09 11:15:00
4:35 AM,36.9,33.6,88,30.09,10.0,Calm,Calm,-,N/A,,Mostly Cloudy,0,2013-11-09 11:35:00
4:55 AM,35.6,32.5,89,30.10,10.0,Calm,Calm,-,N/A,,Mostly Cloudy,0,2013-11-09 11:55:00
5:15 AM,34.9,32.0,89,30.10,10.0,Calm,Calm,-,N/A,,Scattered Clouds,0,2013-11-09 12:15:00
5:35 AM,32.4,30.7,94,30.11,10.0,ENE,3.5,-,N/A,,Clear,70,2013-11-09 12:35:00
5:55 AM,34.0,32.2,93,30.11,10.0,Calm,Calm,-,N/A,,Clear,0,2013-11-09 12:55:00
6:15 AM,33.3,31.6,94,30.12,10.0,WSW,3.5,-,N/A,,Clear,250,2013-11-09 13:15:00
6:35 AM,32.0,30.0,92,30.12,10.0,Calm,Calm,-,N/A,,Scattered Clouds,0,2013-11-09 13:35:00
6:55 AM,32.0,30.6,94,30.14,10.0,WSW,4.6,-,N/A,,Scattered Clouds,240,2013-11-09 13:55:00
7:15 AM,33.1,31.8,95,30.15,10.0,WSW,5.8,-,N/A,,Clear,240,2013-11-09 14:15:00
7:35 AM,35.4,33.1,91,30.16,10.0,West,3.5,-,N/A,,Clear,270,2013-11-09 14:35:00
7:55 AM,37.6,33.8,86,30.18,10.0,West,5.8,-,N/A,,Clear,260,2013-11-09 14:55:00
8:15 AM,40.6,34.7,79,30.18,10.0,WSW,6.9,-,N/A,,Clear,250,2013-11-09 15:15:00
8:35 AM,44.1,35.2,71,30.19,10.0,WSW,3.5,-,N/A,,Mostly Cloudy,250,2013-11-09 15:35:00
8:55 AM,46.6,35.4,65,30.19,10.0,West,3.5,-,N/A,,Overcast,260,2013-11-09 15:55:00
9:15 AM,48.6,35.6,61,30.19,10.0,Calm,Calm,-,N/A,,Scattered Clouds,0,2013-11-09 16:15:00
9:35 AM,50.4,36.1,58,30.20,10.0,West,3.5,-,N/A,,Clear,260,2013-11-09 16:35:00
9:55 AM,52.2,35.6,53,30.20,10.0,Calm,Calm,-,N/A,,Scattered Clouds,0,2013-11-09 16:55:00
10:15 AM,54.3,29.3,38,30.20,10.0,North,6.9,-,N/A,,Scattered Clouds,360,2013-11-09 17:15:00
10:35 AM,54.7,28.0,36,30.21,10.0,NNW,4.6,-,N/A,,Clear,330,2013-11-09 17:35:00
10:55 AM,55.2,29.5,37,30.20,10.0,North,5.8,-,N/A,,Clear,10,2013-11-09 17:55:00
11:15 AM,55.4,29.1,37,30.19,10.0,Calm,Calm,-,N/A,,Clear,0,2013-11-09 18:15:00
11:35 AM,55.6,27.9,35,30.18,10.0,Calm,Calm,-,N/A,,Clear,0,2013-11-09 18:35:00
11:55 AM,56.8,29.3,35,30.18,10.0,NNW,4.6,-,N/A,,Clear,330,2013-11-09 18:55:00
12:15 PM,57.2,28.4,33,30.18,10.0,NE,3.5,-,N/A,,Clear,40,2013-11-09 19:15:00
12:35 PM,57.7,28.9,33,30.17,10.0,Calm,Calm,-,N/A,,Clear,0,2013-11-09 19:35:00
12:55 PM,58.1,28.9,33,30.17,10.0,ESE,3.5,-,N/A,,Clear,120,2013-11-09 19:55:00
1:15 PM,58.5,28.4,32,30.17,10.0,Calm,Calm,-,N/A,,Clear,0,2013-11-09 20:15:00
1:35 PM,59.2,29.8,33,30.18,10.0,NW,5.8,-,N/A,,Clear,320,2013-11-09 20:35:00
1:55 PM,59.2,29.1,32,30.17,10.0,Calm,Calm,-,N/A,,Clear,0,2013-11-09 20:55:00
2:15 PM,59.5,29.8,32,30.17,10.0,Calm,Calm,-,N/A,,Clear,0,2013-11-09 21:15:00
2:35 PM,58.6,28.2,31,30.18,10.0,Calm,Calm,-,N/A,,Clear,0,2013-11-09 21:35:00
2:55 PM,58.8,28.6,32,30.18,10.0,Calm,Calm,-,N/A,,Clear,0,2013-11-09 21:55:00
3:15 PM,58.3,28.4,32,30.18,10.0,ENE,4.6,-,N/A,,Clear,60,2013-11-09 22:15:00
3:35 PM,57.6,29.7,35,30.19,10.0,NE,4.6,-,N/A,,Clear,40,2013-11-09 22:35:00
3:55 PM,56.7,30.9,38,30.20,10.0,NE,4.6,-,N/A,,Clear,40,2013-11-09 22:55:00
4:15 PM,54.1,32.7,44,30.20,10.0,NNE,6.9,-,N/A,,Clear,30,2013-11-09 23:15:00
4:35 PM,51.3,33.1,50,30.21,10.0,NE,3.5,-,N/A,,Clear,50,2013-11-09 23:35:00
4:55 PM,46.9,32.2,57,30.21,10.0,Calm,Calm,-,N/A,,Clear,0,2013-11-09 23:55:00
5:15 PM,46.2,32.0,58,30.22,10.0,Calm,Calm,-,N/A,,Clear,0,2013-11-10 00:15:00
5:35 PM,46.4,31.6,56,30.23,10.0,ENE,4.6,-,N/A,,Clear,60,2013-11-10 00:35:00
5:55 PM,47.3,31.6,55,30.24,10.0,ENE,8.1,-,N/A,,Clear,60,2013-11-10 00:55:00
6:15 PM,46.2,31.6,57,30.26,10.0,ENE,8.1,-,N/A,,Clear,70,2013-11-10 01:15:00
6:35 PM,45.1,31.8,60,30.26,10.0,ENE,8.1,-,N/A,,Clear,60,2013-11-10 01:35:00
7:35 PM,40.8,31.3,69,30.28,10.0,ESE,3.5,-,N/A,,Clear,120,2013-11-10 02:35:00
7:55 PM,41.4,31.8,69,30.29,10.0,East,5.8,-,N/A,,Clear,100,2013-11-10 02:55:00
8:15 PM,39.7,31.8,73,30.29,10.0,East,4.6,-,N/A,,Clear,90,2013-11-10 03:15:00
8:35 PM,39.4,31.6,74,30.31,10.0,ENE,3.5,-,N/A,,Clear,70,2013-11-10 03:35:00
8:55 PM,37.9,30.9,76,30.31,10.0,NE,3.5,-,N/A,,Clear,50,2013-11-10 03:55:00
9:15 PM,37.0,30.9,79,30.31,10.0,ENE,4.6,-,N/A,,Clear,70,2013-11-10 04:15:00
9:35 PM,36.1,30.2,79,30.31,10.0,Calm,Calm,-,N/A,,Clear,0,2013-11-10 04:35:00
9:55 PM,35.8,30.2,80,30.31,10.0,East,3.5,-,N/A,,Clear,80,2013-11-10 04:55:00
10:15 PM,35.8,30.2,80,30.31,10.0,Calm,Calm,-,N/A,,Clear,0,2013-11-10 05:15:00
10:35 PM,34.7,30.0,83,30.31,10.0,East,3.5,-,N/A,,Clear,90,2013-11-10 05:35:00
10:55 PM,35.1,30.9,85,30.31,10.0,East,3.5,-,N/A,,Clear,90,2013-11-10 05:55:00
11:15 PM,34.9,30.9,85,30.32,10.0,East,3.5,-,N/A,,Clear,80,2013-11-10 06:15:00
11:35 PM,34.3,30.6,86,30.31,10.0,East,4.6,-,N/A,,Clear,80,2013-11-10 06:35:00
11:55 PM,34.2,30.6,87,30.31,10.0,East,4.6,-,N/A,,Clear,100,2013-11-10 06:55:00